| time (UTC) | temp F | wind direction | speed knots | gust knots | rain 1hr in | rain 24hr in | rain mn in | humidity % | barometer mb |
| 20260504235003 | 69 | 10 | 3.5 | 12.2 | 0.00 | 0.01 | 0.01 | 32 | 1004.3 |
| 20260504234503 | 70 | 5 | 3.5 | 10.4 | 0.00 | 0.01 | 0.01 | 32 | 1004.1 |
| 20260504234003 | 70 | 352 | 3.5 | 16.5 | 0.00 | 0.01 | 0.01 | 32 | 1004.0 |
| 20260504233504 | 70 | 3 | 3.5 | 16.5 | 0.00 | 0.01 | 0.01 | 31 | 1004.1 |
| 20260504233214 | 71 | 6 | 4.3 | 16.5 | 0.00 | 0.01 | 0.01 | 31 | 1004.0 |
| 20260504232503 | 71 | 23 | 3.5 | 13.0 | 0.00 | 0.01 | 0.01 | 31 | 1003.9 |
| 20260504232003 | 71 | 358 | 4.3 | 13.9 | 0.00 | 0.01 | 0.01 | 33 | 1003.7 |
| 20260504231503 | 71 | 359 | 5.2 | 13.9 | 0.00 | 0.01 | 0.01 | 30 | 1003.6 |
| 20260504231214 | 72 | 360 | 4.3 | 12.2 | 0.00 | 0.01 | 0.01 | 31 | 1003.5 |
| 20260504230503 | 73 | 332 | 3.5 | 19.1 | 0.00 | 0.01 | 0.01 | 29 | 1003.4 |
| 20260504230003 | 73 | 331 | 4.3 | 19.1 | 0.00 | 0.01 | 0.01 | 29 | 1003.4 |
| 20260504225503 | 74 | 345 | 3.5 | 13.0 | 0.00 | 0.01 | 0.01 | 30 | 1003.3 |
| 20260504225003 | 74 | 3 | 3.5 | 11.3 | 0.00 | 0.01 | 0.01 | 31 | 1003.1 |
| 20260504224712 | 74 | 359 | 3.5 | 11.3 | 0.00 | 0.01 | 0.01 | 28 | 1003.0 |
| 20260504224003 | 74 | 357 | 5.2 | 14.8 | 0.00 | 0.01 | 0.01 | 29 | 1002.8 |
| 20260504223712 | 74 | 13 | 4.3 | 14.8 | 0.00 | 0.01 | 0.01 | 30 | 1002.8 |
| 20260504223003 | 75 | 356 | 4.3 | 11.3 | 0.00 | 0.01 | 0.01 | 29 | 1002.7 |
| 20260504222712 | 75 | 340 | 4.3 | 14.8 | 0.00 | 0.01 | 0.01 | 32 | 1002.6 |
| 20260504222003 | 76 | 343 | 4.3 | 14.8 | 0.00 | 0.01 | 0.01 | 28 | 1002.5 |
| 20260504221503 | 76 | 334 | 4.3 | 15.6 | 0.00 | 0.01 | 0.01 | 29 | 1002.3 |
| 20260504221003 | 77 | 331 | 3.5 | 15.6 | 0.00 | 0.01 | 0.01 | 28 | 1002.2 |
| 20260504220503 | 77 | 349 | 3.5 | 12.2 | 0.00 | 0.01 | 0.01 | 31 | 1002.2 |
| 20260504220003 | 77 | 351 | 3.5 | 12.2 | 0.00 | 0.01 | 0.01 | 30 | 1001.9 |
| 20260504215503 | 78 | 336 | 2.6 | 8.7 | 0.00 | 0.01 | 0.01 | 29 | 1002.0 |
| 20260504215213 | 78 | 336 | 3.5 | 8.7 | 0.00 | 0.01 | 0.01 | 28 | 1002.0 |
| 20260504214503 | 78 | 346 | 3.5 | 10.4 | 0.00 | 0.01 | 0.01 | 29 | 1001.8 |
| 20260504214003 | 78 | 10 | 2.6 | 10.4 | 0.01 | 0.01 | 0.01 | 30 | 1001.9 |
| 20260504213712 | 78 | 10 | 2.6 | 9.6 | 0.01 | 0.01 | 0.01 | 29 | 1001.9 |
| 20260504213008 | 78 | 343 | 3.5 | 11.3 | 0.01 | 0.01 | 0.01 | 31 | 1001.9 |
| 20260504212503 | 78 | 327 | 3.5 | 11.3 | 0.01 | 0.01 | 0.01 | 33 | 1001.9 |
| 20260504212003 | 78 | 333 | 2.6 | 7.8 | 0.01 | 0.01 | 0.01 | 31 | 1001.9 |
| 20260504211714 | 78 | 304 | 3.5 | 7.8 | 0.01 | 0.01 | 0.01 | 34 | 1001.7 |
| 20260504211003 | 78 | 321 | 3.5 | 8.7 | 0.01 | 0.01 | 0.01 | 30 | 1001.7 |
| 20260504210503 | 78 | 322 | 3.5 | 8.7 | 0.01 | 0.01 | 0.01 | 34 | 1001.6 |
| 20260504210213 | 78 | 319 | 3.5 | 8.7 | 0.01 | 0.01 | 0.01 | 34 | 1001.7 |
| 20260504205714 | 78 | 316 | 2.6 | 8.7 | 0.01 | 0.01 | 0.01 | 35 | 1001.7 |
| 20260504205003 | 78 | 339 | 2.6 | 9.6 | 0.01 | 0.01 | 0.01 | 34 | 1001.6 |
| 20260504204503 | 79 | 324 | 3.5 | 11.3 | 0.01 | 0.01 | 0.01 | 36 | 1001.6 |
| 20260504204003 | 79 | 317 | 3.5 | 11.3 | 0.00 | 0.00 | 0.00 | 32 | 1001.6 |
| 20260504203503 | 79 | 335 | 3.5 | 7.8 | 0.00 | 0.00 | 0.00 | 35 | 1001.6 |
| 20260504203003 | 79 | 359 | 4.3 | 10.4 | 0.00 | 0.00 | 0.00 | 37 | 1001.5 |
| 20260504202504 | 79 | 354 | 3.5 | 10.4 | 0.00 | 0.00 | 0.00 | 38 | 1001.5 |
| 20260504202212 | 79 | 350 | 3.5 | 10.4 | 0.00 | 0.00 | 0.00 | 37 | 1001.5 |
| 20260504201503 | 79 | 338 | 3.5 | 9.6 | 0.00 | 0.00 | 0.00 | 35 | 1001.6 |
| 20260504201004 | 80 | 347 | 3.5 | 9.6 | 0.00 | 0.00 | 0.00 | 35 | 1001.5 |
| 20260504200713 | 80 | 1 | 4.3 | 9.6 | 0.00 | 0.00 | 0.00 | 32 | 1001.5 |
| 20260504200212 | 80 | 348 | 3.5 | 9.6 | 0.00 | 0.00 | 0.00 | 33 | 1001.3 |
| 20260504195713 | 81 | 320 | 3.5 | 9.6 | 0.00 | 0.00 | 0.00 | 34 | 1001.3 |
| 20260504195003 | 80 | 328 | 2.6 | 8.7 | 0.00 | 0.00 | 0.00 | 35 | 1001.5 |
| 20260504194503 | 80 | 316 | 3.5 | 8.7 | 0.00 | 0.00 | 0.00 | 34 | 1001.3 |
| 20260504194003 | 80 | 314 | 3.5 | 11.3 | 0.00 | 0.00 | 0.00 | 34 | 1001.2 |
| 20260504193503 | 80 | 342 | 3.5 | 11.3 | 0.00 | 0.00 | 0.00 | 34 | 1001.2 |
| 20260504193003 | 80 | 338 | 3.5 | 10.4 | 0.00 | 0.00 | 0.00 | 35 | 1001.2 |
| 20260504192504 | 81 | 306 | 3.5 | 12.2 | 0.00 | 0.00 | 0.00 | 34 | 1001.1 |
| 20260504192003 | 81 | 301 | 3.5 | 12.2 | 0.00 | 0.00 | 0.00 | 37 | 1001.1 |
| 20260504191503 | 81 | 317 | 2.6 | 7.0 | 0.00 | 0.00 | 0.00 | 35 | 1001.1 |
| 20260504191003 | 81 | 307 | 3.5 | 9.6 | 0.00 | 0.00 | 0.00 | 35 | 1001.0 |
| 20260504190504 | 81 | 286 | 4.3 | 12.2 | 0.00 | 0.00 | 0.00 | 31 | 1001.1 |
| 20260504190214 | 81 | 295 | 4.3 | 12.2 | 0.00 | 0.00 | 0.00 | 33 | 1000.8 |
| 20260504185713 | 81 | 322 | 3.5 | 8.7 | 0.00 | 0.00 | 0.00 | 32 | 1001.0 |
| 20260504185003 | 81 | 333 | 3.5 | 13.0 | 0.00 | 0.00 | 0.00 | 34 | 1000.8 |
| 20260504184503 | 82 | 338 | 3.5 | 13.0 | 0.00 | 0.00 | 0.00 | 31 | 1000.8 |
| 20260504184214 | 82 | 326 | 3.5 | 9.6 | 0.00 | 0.00 | 0.00 | 32 | 1000.8 |
| 20260504183503 | 82 | 312 | 3.5 | 10.4 | 0.00 | 0.00 | 0.00 | 31 | 1000.7 |
| 20260504183003 | 82 | 295 | 3.5 | 14.8 | 0.00 | 0.00 | 0.00 | 29 | 1000.6 |
| 20260504182503 | 82 | 273 | 4.3 | 14.8 | 0.00 | 0.00 | 0.00 | 29 | 1000.7 |
| 20260504182003 | 82 | 281 | 3.5 | 12.2 | 0.00 | 0.00 | 0.00 | 28 | 1000.7 |
| 20260504181503 | 82 | 277 | 2.6 | 9.6 | 0.00 | 0.00 | 0.00 | 32 | 1000.7 |
| 20260504181003 | 81 | 275 | 3.5 | 10.4 | 0.00 | 0.00 | 0.00 | 35 | 1000.7 |
| 20260504180713 | 81 | 286 | 4.3 | 10.4 | 0.00 | 0.00 | 0.00 | 33 | 1000.8 |
| 20260504180003 | 81 | 300 | 3.5 | 9.6 | 0.00 | 0.00 | 0.00 | 33 | 1001.0 |
| 20260504175504 | 80 | 300 | 3.5 | 9.6 | 0.00 | 0.00 | 0.00 | 34 | 1001.0 |
| 20260504175004 | 81 | 297 | 3.5 | 9.6 | 0.00 | 0.00 | 0.00 | 29 | 1001.0 |
| 20260504174503 | 81 | 289 | 3.5 | 7.8 | 0.00 | 0.00 | 0.00 | 31 | 1001.0 |
| 20260504174003 | 80 | 292 | 3.5 | 12.2 | 0.00 | 0.00 | 0.00 | 32 | 1001.1 |
| 20260504173503 | 80 | 289 | 4.3 | 12.2 | 0.00 | 0.00 | 0.00 | 32 | 1001.1 |
| 20260504173003 | 80 | 279 | 3.5 | 12.2 | 0.00 | 0.00 | 0.00 | 36 | 1001.1 |
| 20260504172503 | 80 | 268 | 3.5 | 12.2 | 0.00 | 0.00 | 0.00 | 33 | 1001.1 |
| 20260504172003 | 80 | 272 | 4.3 | 13.0 | 0.00 | 0.00 | 0.00 | 32 | 1001.2 |
| 20260504171503 | 80 | 269 | 3.5 | 13.0 | 0.00 | 0.00 | 0.00 | 34 | 1001.0 |
| 20260504171003 | 80 | 279 | 2.6 | 9.6 | 0.00 | 0.00 | 0.00 | 33 | 1001.1 |
| 20260504170503 | 79 | 281 | 3.5 | 8.7 | 0.00 | 0.00 | 0.00 | 32 | 1001.1 |
| 20260504151003 | 69 | 256 | 2.6 | 7.0 | 0.00 | 0.00 | 0.00 | 48 | 1001.4 |
| 20260504150503 | 68 | 243 | 3.5 | 7.0 | 0.00 | 0.00 | 0.00 | 45 | 1001.5 |
| 20260504150212 | 68 | 247 | 2.6 | 7.0 | 0.00 | 0.00 | 0.00 | 46 | 1001.5 |
| 20260504141004 | 62 | 290 | 0.9 | 3.5 | 0.00 | 0.00 | 0.00 | 54 | 1001.8 |
| 20260504140713 | 61 | 288 | 1.7 | 6.1 | 0.00 | 0.00 | 0.00 | 54 | 1001.8 |
| 20260504140214 | 61 | 280 | 3.5 | 7.8 | 0.00 | 0.00 | 0.00 | 53 | 1001.8 |
| 20260504130503 | 55 | 0 | 0.0 | 0.0 | 0.00 | 0.00 | 0.00 | 67 | 1001.7 |
| 20260504110503 | 51 | 0 | 0.0 | 0.0 | 0.00 | 0.00 | 0.00 | 69 | 1001.7 |
| 20260504100503 | 52 | 0 | 0.0 | 0.0 | 0.00 | 0.00 | 0.00 | 65 | 1001.8 |
| 20260504081503 | 53 | 0 | 0.0 | 0.0 | 0.00 | 0.00 | 0.00 | 66 | 1003.2 |
| 20260504081003 | 53 | 199 | 0.0 | 1.7 | 0.00 | 0.00 | 0.00 | 66 | 1003.2 |
| 20260504080713 | 53 | 199 | 0.0 | 1.7 | 0.00 | 0.00 | 0.00 | 68 | 1003.2 |
| 20260504050503 | 57 | 0 | 0.0 | 0.0 | 0.00 | 0.00 | 0.00 | 61 | 1005.8 |
| 20260504050004 | 57 | 0 | 0.0 | 0.0 | 0.00 | 0.00 | 0.00 | 61 | 1005.8 |
| 20260504045714 | 57 | 0 | 0.0 | 0.0 | 0.00 | 0.00 | 0.00 | 61 | 1005.9 |
| 20260504045003 | 58 | 0 | 0.0 | 0.0 | 0.00 | 0.00 | 0.00 | 60 | 1005.9 |
| 20260504044504 | 58 | 0 | 0.0 | 0.9 | 0.00 | 0.00 | 0.00 | 60 | 1006.0 |
| 20260504044003 | 58 | 0 | 0.0 | 0.9 | 0.00 | 0.00 | 0.00 | 59 | 1006.0 |
| 20260504043503 | 58 | 0 | 0.0 | 0.0 | 0.00 | 0.00 | 0.00 | 58 | 1006.1 |
| 20260504043003 | 59 | 200 | 0.0 | 1.7 | 0.00 | 0.00 | 0.00 | 58 | 1006.1 |
| 20260504042714 | 59 | 200 | 0.0 | 1.7 | 0.00 | 0.00 | 0.00 | 58 | 1006.2 |
| 20260504042003 | 59 | 200 | 0.0 | 0.9 | 0.00 | 0.00 | 0.00 | 56 | 1006.2 |
| 20260504041503 | 59 | 0 | 0.0 | 0.0 | 0.00 | 0.00 | 0.00 | 54 | 1006.2 |
| 20260504041003 | 59 | 0 | 0.0 | 0.0 | 0.00 | 0.00 | 0.00 | 54 | 1006.2 |
| 20260504040713 | 60 | 0 | 0.0 | 0.0 | 0.00 | 0.00 | 0.00 | 54 | 1006.3 |
| 20260504040003 | 60 | 0 | 0.0 | 0.0 | 0.00 | 0.00 | 0.00 | 54 | 1006.4 |
| 20260504035714 | 60 | 0 | 0.0 | 0.0 | 0.00 | 0.00 | 0.00 | 55 | 1006.5 |
| 20260504035003 | 60 | 0 | 0.0 | 0.0 | 0.00 | 0.00 | 0.00 | 53 | 1006.5 |
| 20260504034713 | 61 | 0 | 0.0 | 0.0 | 0.00 | 0.00 | 0.00 | 53 | 1006.5 |
| 20260504034004 | 61 | 0 | 0.0 | 0.0 | 0.00 | 0.00 | 0.00 | 53 | 1006.6 |
| 20260504033713 | 61 | 0 | 0.0 | 0.0 | 0.00 | 0.00 | 0.00 | 52 | 1006.7 |
| 20260504033003 | 61 | 0 | 0.0 | 0.0 | 0.00 | 0.00 | 0.00 | 52 | 1006.6 |
| 20260504032503 | 61 | 0 | 0.0 | 0.0 | 0.00 | 0.00 | 0.00 | 52 | 1006.7 |
| 20260504032003 | 61 | 0 | 0.0 | 0.0 | 0.00 | 0.00 | 0.00 | 51 | 1006.7 |
| 20260504031503 | 61 | 0 | 0.0 | 0.0 | 0.00 | 0.00 | 0.00 | 50 | 1006.7 |
| 20260504031003 | 62 | 0 | 0.0 | 0.0 | 0.00 | 0.00 | 0.00 | 51 | 1006.8 |
| 20260504030503 | 62 | 0 | 0.0 | 0.0 | 0.00 | 0.00 | 0.00 | 50 | 1006.9 |
| 20260504030003 | 62 | 0 | 0.0 | 0.0 | 0.00 | 0.00 | 0.00 | 49 | 1006.9 |
| 20260504025503 | 62 | 0 | 0.0 | 0.0 | 0.00 | 0.00 | 0.00 | 48 | 1006.9 |
| 20260504025003 | 62 | 0 | 0.0 | 0.0 | 0.00 | 0.00 | 0.00 | 48 | 1006.9 |
| 20260504024503 | 62 | 0 | 0.0 | 0.0 | 0.00 | 0.00 | 0.00 | 48 | 1006.9 |
| 20260504024003 | 63 | 0 | 0.0 | 0.0 | 0.00 | 0.00 | 0.00 | 48 | 1006.9 |
| 20260504023503 | 63 | 0 | 0.0 | 0.0 | 0.00 | 0.00 | 0.00 | 48 | 1006.9 |
| 20260504023003 | 63 | 0 | 0.0 | 0.0 | 0.00 | 0.00 | 0.00 | 48 | 1006.9 |
| 20260504022503 | 63 | 0 | 0.0 | 0.0 | 0.00 | 0.00 | 0.00 | 47 | 1007.0 |
| 20260504022214 | 63 | 0 | 0.0 | 0.0 | 0.00 | 0.00 | 0.00 | 47 | 1007.0 |
| 20260504021503 | 64 | 0 | 0.0 | 0.0 | 0.00 | 0.00 | 0.00 | 46 | 1007.0 |
| 20260504021003 | 64 | 0 | 0.0 | 0.0 | 0.00 | 0.00 | 0.00 | 44 | 1007.1 |
| 20260504020504 | 64 | 0 | 0.0 | 0.0 | 0.00 | 0.00 | 0.00 | 45 | 1007.0 |
| 20260504020003 | 65 | 0 | 0.0 | 0.0 | 0.00 | 0.00 | 0.00 | 44 | 1007.2 |
| 20260504015503 | 65 | 0 | 0.0 | 0.0 | 0.00 | 0.00 | 0.00 | 43 | 1007.2 |
| 20260504015003 | 66 | 0 | 0.0 | 0.0 | 0.00 | 0.00 | 0.00 | 42 | 1007.2 |
| 20260504014713 | 66 | 0 | 0.0 | 0.0 | 0.00 | 0.00 | 0.00 | 42 | 1007.2 |
| 20260504014214 | 66 | 0 | 0.0 | 0.0 | 0.00 | 0.00 | 0.00 | 42 | 1007.3 |
| 20260504013714 | 67 | 0 | 0.0 | 0.0 | 0.00 | 0.00 | 0.00 | 41 | 1007.2 |
| 20260504013003 | 68 | 0 | 0.0 | 0.0 | 0.00 | 0.00 | 0.00 | 40 | 1007.2 |
| 20260504012503 | 68 | 200 | 0.0 | 0.9 | 0.00 | 0.00 | 0.00 | 41 | 1007.1 |
| 20260504012003 | 69 | 200 | 0.9 | 2.6 | 0.00 | 0.00 | 0.00 | 40 | 1007.2 |
| 20260504011503 | 69 | 200 | 0.9 | 2.6 | 0.00 | 0.00 | 0.00 | 41 | 1007.2 |
| 20260504011003 | 70 | 200 | 0.9 | 1.7 | 0.00 | 0.00 | 0.00 | 38 | 1007.2 |
| 20260504010503 | 70 | 200 | 0.9 | 2.6 | 0.00 | 0.00 | 0.00 | 38 | 1007.3 |
| 20260504010003 | 70 | 200 | 0.9 | 2.6 | 0.00 | 0.00 | 0.00 | 38 | 1007.4 |
| 20260504005503 | 71 | 198 | 1.7 | 3.5 | 0.00 | 0.00 | 0.00 | 36 | 1007.4 |
| 20260504005004 | 71 | 197 | 1.7 | 3.5 | 0.00 | 0.00 | 0.00 | 36 | 1007.5 |
| 20260504004503 | 71 | 197 | 1.7 | 2.6 | 0.00 | 0.00 | 0.00 | 35 | 1007.5 |
| 20260504004003 | 72 | 196 | 1.7 | 3.5 | 0.00 | 0.00 | 0.00 | 35 | 1007.6 |
| 20260504003503 | 72 | 199 | 1.7 | 3.5 | 0.00 | 0.00 | 0.00 | 34 | 1007.6 |
| 20260504003004 | 72 | 210 | 1.7 | 7.0 | 0.00 | 0.00 | 0.00 | 35 | 1007.6 |
| 20260504002503 | 72 | 215 | 2.6 | 7.0 | 0.00 | 0.00 | 0.00 | 34 | 1007.6 |
| 20260504002003 | 73 | 214 | 1.7 | 5.2 | 0.00 | 0.00 | 0.00 | 34 | 1007.7 |
| 20260504001503 | 73 | 227 | 1.7 | 6.1 | 0.00 | 0.00 | 0.00 | 33 | 1007.7 |
| 20260504001003 | 73 | 238 | 1.7 | 6.1 | 0.00 | 0.00 | 0.00 | 34 | 1007.8 |
| 20260504000503 | 74 | 238 | 1.7 | 5.2 | 0.00 | 0.00 | 0.00 | 34 | 1007.9 |
| 20260504000003 | 74 | 253 | 2.6 | 6.1 | 0.00 | 0.00 | 0.00 | 32 | 1007.8 |
| 20260503235503 | 74 | 250 | 2.6 | 6.1 | 0.00 | 0.00 | 0.00 | 33 | 1007.8 |